Погода в Егорьевске

Россия / Московская область     55°22′58″N   39°02′08″E
темп.,
°C
ветер,
м/с
пор.,
м/с
влажн.,
%
обл.,
%
осадки,
мм/ч
давл.,
гПа
погр.,
м
6 мая, чт
чт600:00+9ююз4139285 0.1 1009415
03:00+8ю41392100 0.1 1009329
06:00+8ю41490100 0.0 1008416
09:00+12ю51477100 0.0 1008814
12:00+16ю71561100 0.0 10071836
15:00+14ю81865100 1.3 10062093
18:00+12ююз81572100 0.3 10061554
21:00+9юз51092100 1.3 1008852
7 мая, пт
пт700:00+6юз3109599 0.1 1009431
03:00+6юз3996100 0.1 1010370
06:00+5юз3119182 0.0 1012466
09:00+10зюз59585 0.0 10131187
12:00+14зюз58395 0.0 10142230
15:00+15юз583999 0.0 10132623
18:00+14ююз585183 0.1 10131683
21:00+8ююв3107788 0.1 1014209
8 мая, сб
сб800:00+8ююв41468100 0.0 1014371
03:00+9ююв51560100 0.0 1012603
06:00+9ююв51565100 0.0 1010656
09:00+13ююв61367100 0.1 10081157
12:00+10юв71594100 4.6 10051143
15:00+11ююв61296100 5.6 1004841
18:00+11юз5993100 0.6 1004730
21:00+8зюз41089100 5.1 1005743
9 мая, вс
вс900:00+5юз31089100 0.2 1006653
03:00+4юз41191100 0.2 1007635
06:00+4юз4986100 0.0 1009944
09:00+5зюз4989100 0.1 1011718
12:00+9зсз5865100 0.1 10131422
15:00+10ссз4953100 0.3 10151722
18:00+11с3755100 0.0 10171745
21:00+5ссз22775 0.1 102120
10 мая, пн
пн1000:00+3ссз26845 0.0 1022104
03:00+2с26910 0.0 1024114
06:00+4с27842 0.0 1027186
09:00+10ссв47434 0.0 1027990
12:00+13ссв46375 0.0 10271477
15:00+15ссв463680 0.0 10261550
18:00+13св364983 0.0 10271089
21:00+7ссв23735 0.0 102849